Tracking 18980 objects as of 21-Feb-2018
HD Live streaming from Space Station
objects crossing your sky now

GALAXY 11

Track GALAXY 11 now!
GALAXY 11 is classified as:


NORAD ID: 26038
Int'l Code: 1999-071A
Perigee: 35,790.0 km
Apogee: 35,797.5 km
Inclination: 0.1 °
Period: 1,436.1 minutes
Semi major axis: 42164 km
RCS: 25.1188 m2 (large)
Launch date: December 22, 1999
Source: United States (US)
Launch site: FRENCH GUIANA (FRGUI)

Voice and video communications; 24 C-band, 40 Ku-band; North America, Brazil.
aabbcc
Your satellite tracking list
Your tracking list is empty




NASA's NSSDC Master Catalog

Two Line Element Set (TLE):
1 26038U 99071A   18052.12993437  .00000131  00000-0  00000+0 0  9993
2 26038   0.0923  94.4177 0000893 255.8595 252.3778  1.00271656 66639
Source of the keplerian elements: AFSPC